STARLINK-34048, 63816

Orbit data source: Space-Track

STARLINK-34048, 63816 is a payload satellite owned by SpaceX/Seattle (US) in LEO that was launched on Sun, 04 May 2025 UTC via an FALCON 9 launch vehicle from the Air Force Eastern Test Range (AFETR). Payload-class satellites include a variety of spacecraft equipped with specific instruments for various scientific and technological missions. These include communications satellites like Starlink; space stations such as the ISS; scientific satellites like the Hubble; Earth observation satellites from companies like Planet Labs, Umbra, and HawkEye 360; GPS; miniature CubeSats for education and research; and military/defense satellites.

Loading next visibility...
Identifier
63816, 2025-092N
Orbit
LEO
Country
Flag of USUS
Related business
Manufacturer
SpaceX/Seattle
Mission
Operational Commercial Communications
Bus & Motor
STARLINK V2MO, Unknown motor
Mass
575 kg wet, ~530 kg dry
Launch date (UTC)
2025-05-04 (1 year ago)
Launch vehicle
FALCON 9
Launch site
Air Force Eastern Test Range (AFETR)
Object type
Payload
Rocket body
Debris
Shape & HBR
Box + 2 Pan, 17.7 m
Radar Cross Section
36.964 m², Large (>1 m²)

Expand to show TLE details & history
Last TLE update: 15 hours ago

TLE from 15 hours ago
0 STARLINK-34048
1 63816U 25092N   26124.54739881  .00018474  00000-0  67919-3 0  9991
2 63816  42.9962 217.4102 0001334 283.7124  76.3579 15.27579004 57204
Epoch: 2026-05-04T13:08Z
TLE epoch observation values (Epoch: 2026-05-04T13:08:15.257Z)
Latitude
-0.00001°
Longitude
157.9116°
Altitude
482.611 km
Speed
7.626 km/s
True Right ascension
14h 29m 38s
True Declination
0° 00' 00"
Sunlit
Object was in full shadow at epoch
Visualization orbit readout
Latitude
Unknown
Longitude
Unknown
Altitude
Unknown
Speed
Unknown
Apparent Right ascension
Unknown
Apparent Declination
Unknown
Sunlit
N/A
Visualization observer readout
Local Sidereal Time
12:09:12
Azimuth
Unknown
Elevation
Unknown
Doppler factor
Unknown
Orbital elements
Apogee altitude
485.913 km
Perigee altitude
484.082 km
Semi-major axis
6,863.135 km
Eccentricity
0.00013
Inclination
42.9962°
RAAN
217.4102°
Arg. of periapsis
283.7124°
True anomaly
76.37276°
Mean anomaly
76.3579°
Eccentric anomaly
76.36533°
Mean motion
3.81733 °/min
Orbital period
94.31 mins
BSTAR
0.00067919
Loading maneuver chart data...
Computing Atmospheric mass density...
Loading historical data...
Loading historical data...
Loading historical data...
Loading historical data...
Loading historical data...
Loading historical data...
Loading historical data...

Documentation

Showing up to 5 results
|